Location: Hlohovi?ky
(49.8934°N, 13.6739°E)
Time: 07:18:54
(UTC+00:00)

SPOT 5 - Pass Details

Date: 19 May 2025
Orbit: 620 x 803 km, 98.0° (Epoch: 22 June)

Event Time Altitude Azimuth Distance (km) Brightness Sun altitude
Rises 19:45:52 0° 184° (S) 2,920 5.6 -7.8°
Reaches altitude 10° 19:48:11 10° 191° (SSW) 2,002 4.9 -8.1°
Maximum altitude 19:52:16 40° 262° (W) 922 3.8 -8.6°
Drops below altitude 10° 19:56:21 10° 333° (NNW) 2,000 6.6 -9.0°
Sets 19:58:40 0° 340° (NNW) 2,917 7.4 -9.3°
